When you browse on this site, cookies collect data to enhance your experience and personalize the content and advertising you see.
Visit our Privacy Policy to learn more. By continuing to use the site, you agree to this use of cookies and data.
  • en France
  • Liste des pays
  • À 7 jours
  • Température de l'eau
  • Carte météo
  • Widgets météo
  • user-avatar
    Se connecter

    Météo par heure à Busan

    Ce jour, 29 Mai, Vendredi

    Heure Température Précipitation Vent Pression Humidité
    00:00 +20°C° 0 mm 1 m/s 755 mmHg 66%
    01:00 +19°C° 0 mm 1 m/s 755 mmHg 67%
    02:00 +19°C° 0 mm 1 m/s 755 mmHg 67%
    03:00 +18°C° 0 mm 1 m/s 755 mmHg 67%
    04:00 +17°C° 0 mm 2 m/s 755 mmHg 66%
    05:00 +17°C° 0 mm 2 m/s 755 mmHg 65%
    06:00 +17°C° 0 mm 2 m/s 756 mmHg 64%
    07:00 +19°C° 0 mm 2 m/s 756 mmHg 57%
    08:00 +23°C° 0 mm 2 m/s 756 mmHg 49%
    09:00 +25°C° 0 mm 2 m/s 757 mmHg 38%
    10:00 +27°C° 0 mm 3 m/s 757 mmHg 35%
    11:00 +28°C° 0 mm 3 m/s 757 mmHg 32%
    12:00 +30°C° 0 mm 4 m/s 757 mmHg 28%
    13:00 +29°C° 0 mm 4 m/s 757 mmHg 29%
    14:00 +29°C° 0 mm 5 m/s 757 mmHg 30%
    15:00 +28°C° 0 mm 5 m/s 757 mmHg 30%
    16:00 +27°C° 0 mm 5 m/s 757 mmHg 33%
    17:00 +26°C° 0 mm 4 m/s 757 mmHg 35%
    18:00 +25°C° 0 mm 4 m/s 757 mmHg 38%
    19:00 +24°C° 0 mm 3 m/s 758 mmHg 40%
    20:00 +22°C° 0 mm 3 m/s 758 mmHg 43%
    21:00 +20°C° 0 mm 3 m/s 759 mmHg 46%
    22:00 +20°C° 0 mm 2 m/s 759 mmHg 47%
    23:00 +20°C° 0 mm 2 m/s 759 mmHg 48%

    Demain, 30 Mai, Samedi

    Heure Température Précipitation Vent Pression Humidité
    00:00 +19°C° 0 mm 2 m/s 760 mmHg 49%
    01:00 +19°C° 0 mm 2 m/s 760 mmHg 49%
    02:00 +19°C° 0 mm 2 m/s 759 mmHg 49%
    03:00 +19°C° 0 mm 2 m/s 759 mmHg 49%
    04:00 +19°C° 0 mm 2 m/s 760 mmHg 49%
    05:00 +19°C° 0 mm 2 m/s 760 mmHg 50%
    06:00 +19°C° 0 mm 2 m/s 760 mmHg 50%
    07:00 +21°C° 0 mm 2 m/s 760 mmHg 45%
    08:00 +24°C° 0 mm 2 m/s 760 mmHg 40%
    09:00 +26°C° 0 mm 3 m/s 760 mmHg 35%
    10:00 +27°C° 0 mm 3 m/s 760 mmHg 33%
    11:00 +28°C° 0 mm 4 m/s 760 mmHg 32%
    12:00 +28°C° 0 mm 4 m/s 760 mmHg 30%
    13:00 +28°C° 0 mm 4 m/s 759 mmHg 30%
    14:00 +28°C° 0 mm 4 m/s 759 mmHg 30%
    15:00 +28°C° 0 mm 4 m/s 758 mmHg 30%
    16:00 +28°C° 0 mm 4 m/s 758 mmHg 32%
    17:00 +27°C° 0 mm 3 m/s 758 mmHg 34%
    18:00 +26°C° 0 mm 3 m/s 758 mmHg 35%
    19:00 +25°C° 0 mm 3 m/s 758 mmHg 39%
    20:00 +23°C° 0 mm 2 m/s 758 mmHg 43%
    21:00 +21°C° 0 mm 2 m/s 759 mmHg 47%
    22:00 +20°C° 0 mm 2 m/s 759 mmHg 49%
    23:00 +20°C° 0 mm 2 m/s 759 mmHg 52%

    Après-demain, 31 Mai, Dimanche

    Heure Température Précipitation Vent Pression Humidité
    00:00 +20°C° 0 mm 1 m/s 759 mmHg 55%
    01:00 +20°C° 0 mm 1 m/s 758 mmHg 53%
    02:00 +19°C° 0 mm 1 m/s 758 mmHg 52%
    03:00 +19°C° 0 mm 1 m/s 758 mmHg 51%
    04:00 +19°C° 0 mm 1 m/s 758 mmHg 50%
    05:00 +19°C° 0 mm 1 m/s 758 mmHg 48%
    06:00 +19°C° 0 mm 1 m/s 758 mmHg 47%
    07:00 +20°C° 0 mm 1 m/s 758 mmHg 46%
    08:00 +19°C° 0 mm 0 m/s 758 mmHg 45%
    09:00 +20°C° 0 mm 0 m/s 757 mmHg 43%
    10:00 +25°C° 0 mm 1 m/s 757 mmHg 41%
    11:00 +27°C° 0 mm 2 m/s 757 mmHg 38%
    12:00 +29°C° 0 mm 3 m/s 757 mmHg 36%
    13:00 +29°C° 0 mm 3 m/s 756 mmHg 39%
    14:00 +28°C° 0 mm 3 m/s 756 mmHg 42%
    15:00 +28°C° 0 mm 3 m/s 755 mmHg 45%
    16:00 +27°C° 0 mm 3 m/s 755 mmHg 50%
    17:00 +26°C° 0 mm 3 m/s 755 mmHg 55%
    18:00 +25°C° 0 mm 2 m/s 755 mmHg 60%
    19:00 +24°C° 0 mm 2 m/s 755 mmHg 66%
    20:00 +23°C° 0 mm 2 m/s 755 mmHg 72%
    21:00 +22°C° 0 mm 1 m/s 755 mmHg 79%
    22:00 +21°C° 0 mm 1 m/s 755 mmHg 80%
    23:00 +21°C° 0 mm 1 m/s 755 mmHg 82%

    1 Juin, Lundi

    Heure Température Précipitation Vent Pression Humidité
    00:00 +21°C° 0 mm 1 m/s 755 mmHg 84%
    01:00 +21°C° 0 mm 1 m/s 755 mmHg 84%
    02:00 +20°C° 0 mm 1 m/s 755 mmHg 84%
    03:00 +19°C° 0 mm 2 m/s 755 mmHg 83%
    04:00 +19°C° 0 mm 2 m/s 755 mmHg 83%
    05:00 +19°C° 0 mm 2 m/s 755 mmHg 82%
    06:00 +19°C° 0 mm 2 m/s 755 mmHg 81%
    07:00 +21°C° 0 mm 2 m/s 755 mmHg 73%
    08:00 +24°C° 0 mm 2 m/s 755 mmHg 65%
    09:00 +26°C° 0 mm 2 m/s 755 mmHg 56%
    10:00 +27°C° 0 mm 3 m/s 755 mmHg 53%
    11:00 +28°C° 0 mm 3 m/s 755 mmHg 49%
    12:00 +30°C° 0 mm 4 m/s 755 mmHg 45%
    13:00 +30°C° 0 mm 4 m/s 755 mmHg 45%
    14:00 +30°C° 0 mm 5 m/s 754 mmHg 44%
    15:00 +30°C° 0 mm 5 m/s 754 mmHg 43%
    16:00 +29°C° 0 mm 5 m/s 754 mmHg 48%
    17:00 +29°C° 0 mm 5 m/s 753 mmHg 52%
    18:00 +28°C° 0 mm 5 m/s 753 mmHg 57%
    19:00 +26°C° 0 mm 4 m/s 753 mmHg 63%
    20:00 +25°C° 0 mm 4 m/s 753 mmHg 70%
    21:00 +22°C° 0 mm 3 m/s 753 mmHg 77%
    22:00 +22°C° 0 mm 3 m/s 753 mmHg 80%
    23:00 +21°C° 0 mm 3 m/s 753 mmHg 82%

    2 Juin, Mardi

    Heure Température Précipitation Vent Pression Humidité
    00:00 +21°C° 0 mm 3 m/s 754 mmHg 85%
    01:00 +20°C° 0 mm 2 m/s 753 mmHg 87%
    02:00 +20°C° 0 mm 2 m/s 753 mmHg 88%
    03:00 +20°C° 0 mm 2 m/s 753 mmHg 90%
    04:00 +20°C° 0 mm 2 m/s 752 mmHg 91%
    05:00 +20°C° 0 mm 3 m/s 752 mmHg 91%
    06:00 +20°C° 0 mm 3 m/s 752 mmHg 92%
    07:00 +21°C° 0 mm 3 m/s 752 mmHg 88%
    08:00 +22°C° 0 mm 3 m/s 752 mmHg 84%
    09:00 +24°C° 0 mm 3 m/s 752 mmHg 79%
    10:00 +23°C° 0.1 mm 4 m/s 752 mmHg 79%
    11:00 +23°C° 0.1 mm 4 m/s 752 mmHg 80%
    12:00 +23°C° 0.1 mm 5 m/s 751 mmHg 80%
    13:00 +24°C° 0 mm 6 m/s 751 mmHg 74%
    14:00 +26°C° 0 mm 7 m/s 750 mmHg 69%
    15:00 +27°C° 0 mm 7 m/s 749 mmHg 64%
    16:00 +26°C° 0 mm 7 m/s 749 mmHg 65%
    17:00 +26°C° 0 mm 7 m/s 748 mmHg 67%
    18:00 +24°C° 0 mm 6 m/s 748 mmHg 68%
    19:00 +23°C° 0 mm 6 m/s 749 mmHg 74%
    20:00 +22°C° 0 mm 5 m/s 749 mmHg 81%
    21:00 +21°C° 0 mm 4 m/s 750 mmHg 87%
    22:00 +21°C° 0 mm 4 m/s 750 mmHg 88%
    23:00 +21°C° 0 mm 4 m/s 750 mmHg 89%

    3 Juin, Mercredi

    Heure Température Précipitation Vent Pression Humidité
    00:00 +21°C° 0 mm 4 m/s 750 mmHg 91%
    01:00 +21°C° 0 mm 4 m/s 749 mmHg 91%
    02:00 +21°C° 0 mm 4 m/s 749 mmHg 92%
    03:00 +21°C° 0 mm 4 m/s 748 mmHg 92%
    04:00 +21°C° 0 mm 4 m/s 748 mmHg 91%
    05:00 +21°C° 0 mm 3 m/s 748 mmHg 89%
    06:00 +21°C° 0 mm 3 m/s 748 mmHg 88%
    07:00 +22°C° 0 mm 3 m/s 748 mmHg 78%
    08:00 +25°C° 0 mm 3 m/s 748 mmHg 69%
    09:00 +26°C° 0 mm 3 m/s 749 mmHg 60%
    10:00 +28°C° 0 mm 4 m/s 748 mmHg 53%
    11:00 +29°C° 0 mm 5 m/s 748 mmHg 47%
    12:00 +32°C° 0 mm 6 m/s 748 mmHg 41%
    13:00 +33°C° 0 mm 6 m/s 748 mmHg 39%
    14:00 +33°C° 0 mm 6 m/s 748 mmHg 38%
    15:00 +34°C° 0 mm 6 m/s 747 mmHg 36%
    16:00 +32°C° 0 mm 6 m/s 747 mmHg 44%
    17:00 +29°C° 0 mm 6 m/s 747 mmHg 52%
    18:00 +28°C° 0 mm 6 m/s 747 mmHg 60%
    19:00 +26°C° 0 mm 5 m/s 748 mmHg 68%
    20:00 +25°C° 0 mm 5 m/s 748 mmHg 77%
    21:00 +22°C° 0 mm 4 m/s 749 mmHg 86%
    22:00 +22°C° 0 mm 4 m/s 749 mmHg 87%
    23:00 +21°C° 0 mm 4 m/s 749 mmHg 88%
    Voir plus